Regional Weather Roundup
Issued by NWS Newport/Morehead, NC

Current Version | Previous Version | Graphics & Text | Print | Product List | Glossary Off
Versions: 1 2 3 4 5 6 7 8 9 10 11 12 13 14 15 16 17 18 19 20 21 22 23 24 25 26 27 28 29 30 31 32 33 34 35 36 37 38 39 40 41 42 43 44 45 46 47 48 49 50

000
ASUS42 KMHX 191822
RWRMHX
WEATHER ROUNDUP FOR EASTERN NORTH CAROLINA
NATIONAL WEATHER SERVICE NEWPORT/MOREHEAD CITY NC
200 PM EDT SUN OCT 19 2014

NOTE: "FAIR" INDICATES FEW OR NO CLOUDS BELOW 12,000 FEET
WITH NO SIGNIFICANT WEATHER AND/OR OBSTRUCTIONS TO VISIBILITY

NCZ015>017-031-032-045>047-102-103-191900-
NORTH COAST

CITY           SKY/WX    TMP DP  RH WIND       PRES   REMARKS
EDENTON        SUNNY     64  40  41 NW12G22   30.04S
ELIZABETH CITY MOSUNNY   65  41  41 NW13G21   30.03F
KITTY HAWK     PTCLDY    62  40  43 W10G17    30.01S
MANTEO         SUNNY     62  42  47 NW8G16    30.03S

$$

NCZ045>047-081-094-103-104-191900-
CENTRAL COAST

CITY           SKY/WX    TMP DP  RH WIND       PRES   REMARKS
FRISCO         SUNNY     63  45  51 NW9G17    30.02F
SWANQUARTER      N/A     64 N/A N/A NW14G20   30.00S

$$

NCZ095-097-098-100-101-191900-
SOUTHERN COAST

CITY           SKY/WX    TMP DP  RH WIND       PRES   REMARKS
BEAUFORT       SUNNY     65  45  48 NW15      30.03F
CEDAR ISLAND     N/A     63 N/A N/A NW20      30.06S
JACKSONVILLE   SUNNY     65  42  43 NW14G22   30.05F
PINEY ISLAND   CLEAR     66  42  41 NW14G22   30.03F
WILMINGTON     SUNNY     66  43  43 N12G24    30.05F


$$

NCZ011>013-027>030-043-044-078>080-089-090>093-098-191900-
COASTAL PLAIN

CITY           SKY/WX    TMP DP  RH WIND       PRES   REMARKS
AHOSKIE        SUNNY     61  38  41 N7        30.05F
CLINTON        SUNNY     64  43  46 NW7       30.08F
ELIZABETHTOWN  SUNNY     66  42  40 NW7       30.07F
GOLDSBORO      SUNNY     64  44  48 N14       30.05F
GREENVILLE     SUNNY     64  41  42 N8        30.07F
HAVELOCK       SUNNY     66  43  43 N12       30.05F
KENANSVILLE    SUNNY     64  40  40 N7        30.07F
KINSTON        SUNNY     64  41  42 NW7       30.07F
NEW BERN       SUNNY     67  41  38 NW15      30.06F
RICHLANDS      SUNNY     64  39  39 NW7G17    30.06F
ROCKY MOUNT    SUNNY     64  40  41 NW13      30.07F
WASHINGTON     SUNNY     63  40  42 W8G18     30.05F
WHITEVILLE     SUNNY     65  43  44 N6        30.07F

$$

AMZ130-135-150-152-154-156-158-170-250-252-270-ANZ085-086-088-633-658-670-191900-
MARINE OBSERVATIONS

STATION/POSITION TIME  TEMP    WIND        PRES    WAVE   SWELL
                       AIR SEA DIR/SP/G            HT/PER HT/PER
                 (UTC) (F)     (DEG/KT/KT) (MB)    (FT/S) (FT/S)
CHESAPEAKE LIGHT 1800          320/ 23/ 28 1016.9
64 E VA BEACH    1800   59 70  320/ 25/ 29 1014.4    8/ 7   2/11
DUCK             1800   59 71  350/ 14/ 22 1015.6
2 E DUCK         1800                        N/A     5/ 6   2/12
10 NE DUCK       1800      71                N/A     6/ 6   2/11
OREGON INLET     1800   60 71  320/ 11/ 15 1016.6
13E OREGON INLT  1800      76                N/A     6/ 7   2/11
HATTERAS CG      1800   61 68  340/ 19/ 22 1016.8
DIAMOND BUOY     1800   61     320/ 21/ 25 1016.0    5/ 5   2/11
17 S OCRACOKE    NOT AVBL
CAPE LOOKOUT     1800   62     330/ 14/ 16 1016.9
BEAUFORT LAB     1800   63 69  330/  8/ 14 1016.3
30 SE NEW RIVER  1800   62 76  340/ 14/ 17 1017.0    4/ 5   2/10
5 SE WRIGHTSVLE  1800   61 74   20/ 10/ 10   N/A
225 S CAPE HAT   1710   73 80  330/ 17/ 23 1015.0    7/ 6   3/12
41 SE CHARLESTON 1800   65 79   20/ 14/ 16 1017.7    5/ 7   3/ 7

$$



USA.gov is the U.S. government's official web portal to all federal, state and local government web resources and services.